contact:dominique.lefevre@mio.osupytheas.fr, maurice.libes@osupytheas.fr, didier.mallarino@osupytheas.fr
Project:EMSO http://www.emso-fr.org/EMSO-France
Depth: 2436.0 m
Title:EMSO Ligure Ouest : Data MII capteur AQUADOPP
Date,Latitude,Longitude,X_East,Y_North,Z_Up,Amplitude_X,Amplitude_Y,Amplitude_Z,Batterie,SoundSpeed,Heading,Pitch,Roll,Pressure,TIS,Speed,Direction
, degrees North, degrees East, m.s-1, m.s-1,m.s-1, 1, 1, 1, Volt, m.s-1, degree, degree, degree, dbar, degree_C, m.s-1, degree
2022-02-23T00:04:03,42.805,6.029,-0.042,-0.017,-0.028,106.0,105.0,104.0,13.4,1505.2,332.0,-0.7,1.8,2473.457,13.28,0.045,248.0
2022-02-23T00:07:03,42.805,6.029,-0.007,-0.022,-0.046,106.0,107.0,105.0,13.4,1505.2,328.1,-0.8,1.8,2473.373,13.29,0.023,197.6
2022-02-23T00:10:03,42.805,6.029,-0.008,-0.036,-0.025,107.0,106.0,103.0,13.3,1505.2,324.4,-0.8,1.8,2473.271,13.29,0.036,192.5
2022-02-23T00:13:03,42.805,6.029,-0.034,-0.023,-0.021,107.0,105.0,103.0,13.4,1505.2,329.4,-0.8,1.8,2473.168,13.29,0.041,235.9
2022-02-23T00:16:03,42.805,6.029,-0.037,-0.005,-0.006,107.0,106.0,104.0,13.3,1505.2,326.5,-0.7,1.8,2473.027,13.29,0.037,262.3
2022-02-23T00:19:03,42.805,6.029,-0.032,-0.034,-0.008,107.0,106.0,103.0,13.4,1505.2,328.8,-0.8,1.8,2473.076,13.29,0.046,223.3
2022-02-23T00:22:03,42.805,6.029,-0.033,-0.03,-0.026,107.0,106.0,104.0,13.4,1505.2,324.1,-0.8,1.8,2472.878,13.29,0.044,227.7
2022-02-23T00:25:03,42.805,6.029,-0.017,-0.03,-0.013,105.0,106.0,104.0,13.4,1505.2,324.4,-0.8,1.8,2472.792,13.29,0.034,209.5
2022-02-23T00:28:03,42.805,6.029,-0.009,-0.022,-0.009,107.0,106.0,102.0,13.4,1505.2,324.4,-0.7,1.8,2472.617,13.29,0.023,202.2
2022-02-23T00:31:03,42.805,6.029,-0.017,-0.003,0.013,107.0,106.0,105.0,13.3,1505.2,327.2,-0.8,1.8,2472.665,13.29,0.017,260.0
2022-02-23T00:34:03,42.805,6.029,-0.013,-0.027,-0.019,107.0,106.0,103.0,13.3,1505.2,326.1,-0.8,1.8,2472.696,13.29,0.029,205.7
2022-02-23T00:37:03,42.805,6.029,-0.036,-0.025,-0.007,106.0,107.0,104.0,13.4,1505.2,330.6,-0.8,1.8,2472.86,13.29,0.043,235.2
2022-02-23T00:40:03,42.805,6.029,-0.02,-0.026,-0.014,107.0,105.0,104.0,13.4,1505.2,327.7,-0.8,1.8,2471.324,13.29,0.032,217.6
2022-02-23T00:43:03,42.805,6.029,0.005,-0.011,0.003,107.0,104.0,105.0,13.4,1505.2,329.0,-0.8,1.9,2470.64,13.29,0.012,155.6
2022-02-23T00:46:03,42.805,6.029,-0.027,-0.012,-0.006,108.0,105.0,104.0,13.4,1505.2,324.2,-0.8,1.8,2470.526,13.29,0.029,246.0
2022-02-23T00:49:03,42.805,6.029,-0.02,-0.007,0.004,106.0,106.0,104.0,13.4,1505.2,331.1,-0.8,1.8,2470.352,13.29,0.021,250.7
2022-02-23T00:52:03,42.805,6.029,-0.004,-0.032,0.0,107.0,106.0,105.0,13.4,1505.2,329.2,-0.8,1.8,2470.6,13.29,0.032,187.1
2022-02-23T00:55:03,42.805,6.029,-0.028,-0.016,-0.015,108.0,107.0,104.0,13.4,1505.2,323.0,-0.8,1.8,2470.598,13.29,0.032,240.3
2022-02-23T00:58:03,42.805,6.029,-0.039,-0.001,-0.019,108.0,107.0,105.0,13.4,1505.2,329.6,-0.7,1.8,2470.535,13.29,0.039,268.5
2022-02-23T01:04:03,42.805,6.029,-0.013,-0.019,0.013,109.0,106.0,106.0,13.4,1505.2,328.5,-0.8,1.9,2470.886,13.28,0.023,214.4
2022-02-23T01:07:03,42.805,6.029,-0.028,-0.015,-0.025,107.0,106.0,104.0,13.4,1505.2,326.3,-0.7,1.8,2471.251,13.28,0.031,241.8
2022-02-23T01:10:03,42.805,6.029,-0.039,-0.017,-0.006,107.0,105.0,104.0,13.4,1505.2,329.7,-0.8,1.8,2471.597,13.28,0.042,246.5
2022-02-23T01:13:03,42.805,6.029,-0.011,-0.012,-0.02,107.0,106.0,104.0,13.4,1505.2,324.1,-0.7,1.8,2471.208,13.29,0.016,222.5
2022-02-23T01:16:03,42.805,6.029,-0.037,-0.008,-0.032,106.0,106.0,104.0,13.4,1505.2,323.3,-0.8,1.8,2471.191,13.29,0.037,257.8
2022-02-23T01:19:03,42.805,6.029,-0.007,-0.014,-0.011,107.0,105.0,104.0,13.4,1505.2,330.2,-0.8,1.8,2471.366,13.29,0.015,206.6
2022-02-23T01:22:03,42.805,6.029,-0.026,-0.013,-0.006,107.0,107.0,104.0,13.4,1505.2,328.6,-0.8,1.8,2471.536,13.29,0.029,243.4
2022-02-23T01:25:03,42.805,6.029,-0.034,-0.012,-0.018,108.0,105.0,105.0,13.3,1505.2,327.2,-0.7,1.8,2472.064,13.29,0.036,250.6
2022-02-23T01:28:03,42.805,6.029,-0.025,-0.02,-0.016,106.0,106.0,103.0,13.4,1505.2,327.8,-0.8,1.8,2472.322,13.29,0.032,231.3
2022-02-23T01:31:03,42.805,6.029,-0.012,-0.017,-0.034,107.0,105.0,104.0,13.4,1505.2,325.9,-0.8,1.8,2472.392,13.29,0.02,215.2
2022-02-23T01:34:03,42.805,6.029,-0.029,-0.008,-0.01,106.0,105.0,103.0,13.3,1505.2,328.4,-0.8,1.8,2472.411,13.29,0.03,254.6
2022-02-23T01:37:03,42.805,6.029,-0.009,-0.005,-0.027,106.0,106.0,104.0,13.4,1505.2,323.1,-0.8,1.8,2472.13,13.29,0.01,240.9
2022-02-23T01:40:03,42.805,6.029,-0.016,-0.012,0.002,108.0,105.0,104.0,13.4,1505.2,327.2,-0.8,1.8,2472.39,13.29,0.02,233.1
2022-02-23T01:43:03,42.805,6.029,-0.003,-0.023,-0.012,108.0,105.0,103.0,13.4,1505.2,328.3,-0.7,1.8,2472.501,13.29,0.023,187.4
2022-02-23T01:46:03,42.805,6.029,-0.017,-0.028,-0.006,107.0,105.0,104.0,13.4,1505.2,326.3,-0.8,1.8,2472.415,13.29,0.032,211.3
2022-02-23T01:49:03,42.805,6.029,-0.019,-0.03,-0.026,107.0,106.0,103.0,13.4,1505.2,325.2,-0.8,1.8,2472.445,13.29,0.035,212.3
2022-02-23T01:52:03,42.805,6.029,-0.03,-0.008,-0.03,106.0,107.0,103.0,13.3,1505.2,328.5,-0.7,1.8,2472.462,13.29,0.031,255.1
2022-02-23T01:55:03,42.805,6.029,-0.015,-0.018,-0.029,106.0,107.0,103.0,13.4,1505.2,329.6,-0.8,1.8,2472.237,13.29,0.023,219.8
2022-02-23T01:58:03,42.805,6.029,-0.024,0.013,-0.017,106.0,104.0,103.0,13.4,1505.2,328.7,-0.7,1.8,2472.102,13.29,0.027,298.4
2022-02-23T02:04:03,42.805,6.029,-0.019,0.007,-0.001,106.0,105.0,103.0,13.4,1505.2,328.3,-0.8,1.8,2472.273,13.28,0.02,290.2
2022-02-23T02:07:03,42.805,6.029,-0.015,-0.01,-0.01,107.0,106.0,103.0,13.4,1505.2,323.0,-0.7,1.8,2472.418,13.28,0.018,236.3
2022-02-23T02:10:03,42.805,6.029,-0.028,0.0,-0.026,106.0,105.0,103.0,13.4,1505.2,324.2,-0.8,1.8,2472.42,13.28,0.028,270.0
2022-02-23T02:13:03,42.805,6.029,-0.031,-0.007,-0.024,107.0,106.0,103.0,13.4,1505.2,327.9,-0.8,1.8,2472.716,13.29,0.031,257.3
2022-02-23T02:16:03,42.805,6.029,-0.037,0.006,-0.025,106.0,105.0,103.0,13.3,1505.2,324.9,-0.8,1.8,2472.966,13.29,0.037,279.2
2022-02-23T02:19:03,42.805,6.029,-0.004,-0.004,-0.005,105.0,105.0,104.0,13.4,1505.2,325.6,-0.7,1.8,2472.8,13.29,0.005,225.0
2022-02-23T02:22:03,42.805,6.029,-0.046,-0.004,-0.012,107.0,107.0,104.0,13.4,1505.2,326.7,-0.7,1.8,2472.928,13.29,0.046,265.0
2022-02-23T02:25:03,42.805,6.029,-0.013,-0.026,-0.015,108.0,106.0,103.0,13.3,1505.2,328.6,-0.8,1.9,2473.059,13.29,0.029,206.6
2022-02-23T02:28:03,42.805,6.029,-0.018,-0.011,-0.035,107.0,106.0,103.0,13.4,1505.2,327.5,-0.8,1.9,2473.157,13.29,0.021,238.6
2022-02-23T02:31:03,42.805,6.029,-0.003,-0.024,-0.031,106.0,106.0,105.0,13.3,1505.2,328.9,-0.8,1.8,2473.207,13.29,0.024,187.1
2022-02-23T02:34:03,42.805,6.029,-0.024,-0.002,-0.006,107.0,106.0,104.0,13.3,1505.2,329.4,-0.8,1.8,2473.072,13.29,0.024,265.2
2022-02-23T02:37:03,42.805,6.029,-0.008,-0.019,-0.03,108.0,106.0,105.0,13.3,1505.2,328.8,-0.8,1.8,2473.156,13.29,0.02,202.8
2022-02-23T02:40:03,42.805,6.029,-0.016,-0.014,0.006,107.0,106.0,104.0,13.3,1505.2,328.7,-0.7,1.8,2473.235,13.29,0.021,228.8
2022-02-23T02:43:03,42.805,6.029,0.0,-0.015,-0.016,108.0,105.0,104.0,13.4,1505.2,323.5,-0.8,1.8,2472.915,13.29,0.015,180.0
2022-02-23T02:46:03,42.805,6.029,-0.021,-0.009,-0.027,107.0,106.0,107.0,13.4,1505.2,328.8,-0.7,1.9,2473.026,13.29,0.022,246.8
2022-02-23T02:49:03,42.805,6.029,-0.016,-0.004,-0.034,107.0,106.0,104.0,13.4,1505.2,326.9,-0.8,1.8,2472.333,13.29,0.016,256.0
2022-02-23T02:52:03,42.805,6.029,-0.044,0.003,-0.014,107.0,107.0,105.0,13.4,1505.2,329.0,-0.8,1.8,2472.1,13.29,0.044,273.9
2022-02-23T02:55:03,42.805,6.029,-0.009,-0.002,-0.013,108.0,106.0,104.0,13.3,1505.2,329.7,-0.7,1.8,2472.083,13.29,0.009,257.5
2022-02-23T02:58:03,42.805,6.029,-0.005,-0.021,0.008,107.0,106.0,105.0,13.4,1505.2,328.9,-0.7,1.8,2472.128,13.29,0.021,193.4
2022-02-23T03:04:03,42.805,6.029,-0.032,-0.005,0.009,108.0,106.0,103.0,13.4,1505.2,327.7,-0.8,1.8,2472.29,13.28,0.032,261.1
2022-02-23T03:07:03,42.805,6.029,-0.037,0.006,-0.019,107.0,106.0,103.0,13.4,1505.2,326.7,-0.8,1.8,2472.515,13.28,0.037,279.2
2022-02-23T03:10:03,42.805,6.029,-0.041,0.0,-0.029,107.0,105.0,104.0,13.3,1505.2,329.9,-0.8,1.8,2472.901,13.28,0.041,270.0
2022-02-23T03:13:03,42.805,6.029,-0.011,-0.015,-0.024,107.0,106.0,104.0,13.4,1505.2,328.9,-0.8,1.8,2473.106,13.29,0.018,216.3
2022-02-23T03:16:03,42.805,6.029,-0.011,-0.012,0.005,107.0,104.0,104.0,13.3,1505.2,327.8,-0.8,1.8,2473.135,13.29,0.016,222.5
2022-02-23T03:19:03,42.805,6.029,-0.027,-0.001,0.014,107.0,106.0,104.0,13.4,1505.2,325.9,-0.8,1.8,2473.075,13.29,0.027,267.9
2022-02-23T03:22:03,42.805,6.029,-0.041,-0.011,0.0,105.0,106.0,104.0,13.4,1505.2,324.4,-0.7,1.8,2473.004,13.29,0.042,255.0
2022-02-23T03:25:03,42.805,6.029,-0.02,-0.017,0.009,105.0,107.0,104.0,13.4,1505.2,331.3,-0.7,1.9,2473.016,13.29,0.026,229.6
2022-02-23T03:28:03,42.805,6.029,-0.037,0.0,0.0,106.0,106.0,104.0,13.4,1505.2,327.9,-0.8,1.8,2472.989,13.29,0.037,270.0
2022-02-23T03:31:03,42.805,6.029,-0.033,-0.011,-0.005,107.0,107.0,104.0,13.3,1505.2,328.5,-0.8,1.8,2472.184,13.29,0.034,251.6
2022-02-23T03:34:03,42.805,6.029,-0.013,-0.037,-0.025,106.0,106.0,104.0,13.4,1505.2,328.8,-0.8,1.8,2472.556,13.29,0.039,199.4
2022-02-23T03:37:03,42.805,6.029,-0.03,0.004,-0.014,107.0,105.0,103.0,13.4,1505.2,329.4,-0.8,1.8,2472.288,13.29,0.03,277.6
2022-02-23T03:40:03,42.805,6.029,-0.025,-0.012,-0.017,107.0,106.0,104.0,13.3,1505.2,326.8,-0.8,1.8,2472.368,13.29,0.027,244.4
2022-02-23T03:43:03,42.805,6.029,-0.028,-0.011,-0.02,107.0,107.0,103.0,13.4,1505.2,324.6,-0.7,1.8,2472.796,13.29,0.03,248.6
2022-02-23T03:46:03,42.805,6.029,-0.034,-0.013,-0.012,106.0,105.0,104.0,13.4,1505.2,329.7,-0.8,1.8,2473.169,13.29,0.036,249.1
2022-02-23T03:49:03,42.805,6.029,-0.02,0.006,0.004,105.0,107.0,104.0,13.4,1505.2,327.3,-0.8,1.8,2473.415,13.29,0.02,286.7
2022-02-23T03:52:03,42.805,6.029,-0.024,-0.011,0.01,107.0,106.0,102.0,13.4,1505.2,329.0,-0.8,1.8,2473.543,13.29,0.026,245.4
2022-02-23T03:55:03,42.805,6.029,-0.013,0.003,-0.014,107.0,107.0,104.0,13.4,1505.2,327.5,-0.8,1.8,2473.694,13.29,0.013,283.0
2022-02-23T03:58:03,42.805,6.029,-0.043,0.003,-0.019,107.0,106.0,105.0,13.4,1505.2,325.3,-0.7,1.8,2473.783,13.29,0.043,274.0
2022-02-23T04:04:03,42.805,6.029,-0.034,0.02,0.007,107.0,105.0,104.0,13.4,1505.2,325.8,-0.7,1.8,2472.729,13.28,0.039,300.5
2022-02-23T04:07:03,42.805,6.029,-0.017,0.016,-0.025,107.0,106.0,104.0,13.4,1505.2,331.4,-0.8,1.8,2472.223,13.29,0.023,313.3
2022-02-23T04:10:03,42.805,6.029,-0.023,0.0,-0.034,106.0,106.0,105.0,13.3,1505.2,325.9,-0.7,1.8,2471.623,13.29,0.023,270.0
2022-02-23T04:13:03,42.805,6.029,-0.003,0.01,-0.02,106.0,107.0,106.0,13.4,1505.2,327.2,-0.7,1.8,2470.637,13.29,0.01,343.3
2022-02-23T04:16:03,42.805,6.029,-0.039,0.017,-0.004,106.0,106.0,102.0,13.4,1505.2,330.9,-0.8,1.8,2470.127,13.29,0.042,293.5
2022-02-23T04:19:03,42.805,6.029,-0.035,0.006,0.002,107.0,106.0,103.0,13.4,1505.2,331.7,-0.7,1.8,2470.262,13.29,0.035,279.7
2022-02-23T04:22:03,42.805,6.029,-0.037,0.0,-0.019,105.0,106.0,104.0,13.4,1505.2,331.2,-0.8,1.8,2470.321,13.29,0.037,270.0
2022-02-23T04:25:03,42.805,6.029,-0.035,0.003,-0.042,106.0,106.0,104.0,13.4,1505.2,329.4,-0.7,1.8,2470.43,13.29,0.035,274.9
2022-02-23T04:28:03,42.805,6.029,-0.023,0.0,-0.01,106.0,106.0,103.0,13.3,1505.2,327.1,-0.8,1.8,2470.473,13.29,0.023,270.0
2022-02-23T04:31:03,42.805,6.029,-0.003,0.008,0.01,107.0,106.0,104.0,13.4,1505.2,328.8,-0.8,1.8,2470.552,13.29,0.008,339.4
2022-02-23T04:34:03,42.805,6.029,-0.02,-0.001,-0.005,106.0,105.0,105.0,13.4,1505.2,324.1,-0.8,1.8,2470.615,13.29,0.02,267.1
2022-02-23T04:37:03,42.805,6.029,-0.03,0.003,-0.027,106.0,105.0,104.0,13.3,1505.2,326.0,-0.8,1.8,2470.654,13.29,0.03,275.7
2022-02-23T04:40:03,42.805,6.029,-0.035,0.015,0.019,107.0,105.0,104.0,13.3,1505.2,324.1,-0.7,1.8,2470.68,13.29,0.038,293.2
2022-02-23T04:43:03,42.805,6.029,-0.016,0.022,-0.014,106.0,105.0,103.0,13.4,1505.2,331.9,-0.8,1.8,2470.731,13.29,0.027,324.0
2022-02-23T04:46:03,42.805,6.029,-0.007,0.008,-0.011,106.0,106.0,104.0,13.4,1505.2,326.3,-0.7,1.8,2470.758,13.29,0.01,318.8
2022-02-23T04:49:03,42.805,6.029,-0.042,0.015,0.004,107.0,105.0,105.0,13.4,1505.2,329.2,-0.7,1.8,2470.804,13.29,0.044,289.6
2022-02-23T04:52:03,42.805,6.029,-0.016,0.017,0.0,106.0,105.0,105.0,13.4,1505.2,323.4,-0.7,1.8,2470.791,13.29,0.023,316.7
2022-02-23T04:55:03,42.805,6.029,-0.052,0.013,-0.004,106.0,105.0,103.0,13.4,1505.2,331.4,-0.7,1.8,2470.783,13.29,0.053,284.0
2022-02-23T04:58:03,42.805,6.029,-0.039,0.008,-0.005,105.0,106.0,104.0,13.4,1505.2,328.6,-0.7,1.8,2470.798,13.29,0.039,281.6
2022-02-23T05:04:03,42.805,6.029,-0.011,0.016,-0.002,108.0,106.0,102.0,13.4,1505.2,330.9,-0.8,1.8,2470.857,13.29,0.019,325.5
2022-02-23T05:07:03,42.805,6.029,-0.02,0.025,-0.014,106.0,105.0,101.0,13.3,1505.2,331.9,-0.8,1.8,2470.823,13.29,0.032,321.3
2022-02-23T05:10:03,42.805,6.029,-0.025,0.0,0.016,106.0,105.0,104.0,13.4,1505.2,331.1,-0.7,1.8,2470.843,13.29,0.025,270.0
2022-02-23T05:13:03,42.805,6.029,-0.021,0.013,-0.025,106.0,105.0,103.0,13.4,1505.2,327.5,-0.8,1.8,2470.855,13.29,0.024,301.8
2022-02-23T05:16:03,42.805,6.029,-0.018,0.024,-0.028,106.0,106.0,102.0,13.3,1505.2,324.2,-0.8,1.8,2470.866,13.29,0.03,323.1
2022-02-23T05:19:03,42.805,6.029,-0.032,0.013,0.017,105.0,105.0,104.0,13.4,1505.2,325.3,-0.7,1.8,2470.829,13.29,0.034,292.1
2022-02-23T05:22:03,42.805,6.029,-0.015,0.017,-0.005,108.0,106.0,105.0,13.4,1505.2,325.2,-0.8,1.9,2470.819,13.29,0.022,318.6
2022-02-23T05:25:03,42.805,6.029,-0.026,-0.003,-0.018,107.0,105.0,104.0,13.4,1505.2,329.9,-0.8,1.8,2470.87,13.29,0.026,263.4
2022-02-23T05:28:03,42.805,6.029,-0.03,0.019,-0.006,107.0,105.0,103.0,13.4,1505.2,327.3,-0.7,1.8,2470.835,13.29,0.035,302.3
2022-02-23T05:31:03,42.805,6.029,-0.035,0.016,0.005,106.0,106.0,103.0,13.4,1505.2,328.8,-0.8,1.8,2470.868,13.29,0.038,294.6
2022-02-23T05:34:03,42.805,6.029,-0.033,0.002,-0.009,106.0,105.0,103.0,13.4,1505.2,326.6,-0.8,1.8,2470.818,13.29,0.033,273.5
2022-02-23T05:37:03,42.805,6.029,-0.002,0.029,-0.004,106.0,107.0,103.0,13.3,1505.2,331.4,-0.7,1.8,2470.813,13.29,0.029,356.1
2022-02-23T05:40:03,42.805,6.029,-0.034,0.023,0.025,106.0,106.0,105.0,13.4,1505.2,329.1,-0.8,1.8,2470.789,13.29,0.041,304.1
2022-02-23T05:43:03,42.805,6.029,-0.045,0.012,-0.001,105.0,105.0,103.0,13.3,1505.2,329.0,-0.7,1.8,2470.77,13.29,0.046,284.9
2022-02-23T05:46:03,42.805,6.029,-0.026,0.005,0.013,105.0,106.0,104.0,13.4,1505.2,323.8,-0.7,1.8,2470.808,13.29,0.026,280.9
2022-02-23T05:49:03,42.805,6.029,-0.011,0.014,0.007,105.0,106.0,104.0,13.4,1505.2,324.4,-0.8,1.8,2470.837,13.29,0.017,321.8
2022-02-23T05:52:03,42.805,6.029,-0.024,0.01,0.015,106.0,105.0,104.0,13.3,1505.2,327.5,-0.7,1.8,2470.766,13.29,0.026,292.6
2022-02-23T05:55:03,42.805,6.029,-0.037,0.016,-0.007,106.0,106.0,103.0,13.4,1505.2,325.2,-0.8,1.8,2470.79,13.29,0.04,293.4
2022-02-23T05:58:03,42.805,6.029,-0.035,0.01,0.008,106.0,105.0,104.0,13.4,1505.2,329.2,-0.7,1.8,2470.725,13.29,0.036,285.9
2022-02-23T06:04:03,42.805,6.029,-0.045,0.012,-0.013,109.0,106.0,104.0,13.4,1505.2,327.9,-0.7,1.8,2470.777,13.28,0.046,284.9
2022-02-23T06:07:03,42.805,6.029,-0.01,0.02,-0.017,107.0,105.0,103.0,13.3,1505.2,328.2,-0.8,1.8,2470.797,13.28,0.022,333.4
2022-02-23T06:10:03,42.805,6.029,-0.027,0.0,0.025,107.0,106.0,103.0,13.4,1505.2,323.4,-0.8,1.8,2470.769,13.29,0.026,270.0
2022-02-23T06:13:03,42.805,6.029,-0.03,0.009,-0.003,107.0,107.0,104.0,13.3,1505.2,328.5,-0.8,1.8,2470.797,13.29,0.031,286.7
2022-02-23T06:16:03,42.805,6.029,-0.027,-0.002,-0.021,107.0,106.0,104.0,13.4,1505.2,325.9,-0.7,1.8,2470.8,13.29,0.027,265.8
2022-02-23T06:19:03,42.805,6.029,-0.022,-0.002,0.011,106.0,106.0,104.0,13.3,1505.2,329.0,-0.7,1.9,2470.776,13.29,0.022,264.8
2022-02-23T06:22:03,42.805,6.029,-0.027,0.012,-0.008,109.0,106.0,102.0,13.4,1505.2,325.8,-0.7,1.8,2470.769,13.29,0.029,294.0
2022-02-23T06:25:03,42.805,6.029,-0.019,0.023,-0.015,106.0,106.0,103.0,13.3,1505.2,329.7,-0.8,1.8,2470.809,13.29,0.029,320.4
2022-02-23T06:28:03,42.805,6.029,-0.035,0.011,0.005,106.0,106.0,103.0,13.3,1505.2,325.2,-0.7,1.8,2470.749,13.29,0.036,287.4
2022-02-23T06:31:03,42.805,6.029,-0.001,-0.018,-0.021,107.0,106.0,103.0,13.4,1505.2,326.7,-0.7,1.8,2470.766,13.29,0.018,183.2
2022-02-23T06:34:03,42.805,6.029,-0.037,0.013,-0.027,106.0,106.0,103.0,13.4,1505.2,331.3,-0.7,1.8,2470.805,13.29,0.039,289.4
2022-02-23T06:37:03,42.805,6.029,-0.028,0.023,-0.015,105.0,105.0,103.0,13.3,1505.2,327.8,-0.8,1.8,2470.766,13.29,0.036,309.4
2022-02-23T06:40:03,42.805,6.029,-0.025,0.036,0.004,106.0,106.0,105.0,13.3,1505.2,328.2,-0.7,1.9,2470.751,13.29,0.043,325.2
2022-02-23T06:43:03,42.805,6.029,-0.04,0.019,-0.003,109.0,106.0,105.0,13.3,1505.2,329.8,-0.7,1.9,2470.749,13.29,0.044,295.4
2022-02-23T06:46:03,42.805,6.029,-0.029,0.005,-0.021,107.0,106.0,104.0,13.3,1505.2,327.4,-0.7,1.8,2470.796,13.29,0.029,279.8
2022-02-23T06:49:03,42.805,6.029,-0.023,0.002,-0.015,106.0,105.0,104.0,13.4,1505.2,326.4,-0.8,1.8,2470.748,13.29,0.023,275.0
2022-02-23T06:52:03,42.805,6.029,-0.047,0.015,0.014,107.0,106.0,104.0,13.4,1505.2,331.1,-0.7,1.8,2470.747,13.29,0.049,287.7
2022-02-23T06:55:03,42.805,6.029,-0.013,0.008,-0.022,107.0,105.0,104.0,13.4,1505.2,327.6,-0.8,1.8,2470.75,13.29,0.015,301.6
2022-02-23T06:58:03,42.805,6.029,-0.023,0.013,-0.026,107.0,106.0,104.0,13.3,1505.2,327.5,-0.8,1.8,2470.751,13.29,0.026,299.5
2022-02-23T07:04:03,42.805,6.029,0.0,0.01,0.001,106.0,106.0,104.0,13.4,1505.2,324.0,-0.7,1.8,2470.833,13.28,0.01,0.0
2022-02-23T07:07:03,42.805,6.029,-0.022,-0.002,0.014,105.0,104.0,103.0,13.3,1505.2,324.2,-0.7,1.8,2470.782,13.29,0.022,264.8
2022-02-23T07:10:03,42.805,6.029,-0.018,0.003,0.019,106.0,106.0,104.0,13.4,1505.2,326.7,-0.8,1.8,2470.78,13.29,0.018,279.5
2022-02-23T07:13:03,42.805,6.029,-0.021,-0.005,-0.018,105.0,106.0,103.0,13.4,1505.2,327.8,-0.7,1.8,2470.796,13.29,0.021,256.6
2022-02-23T07:16:03,42.805,6.029,-0.035,0.005,-0.008,106.0,107.0,103.0,13.4,1505.2,328.9,-0.7,1.8,2470.767,13.29,0.035,278.1
2022-02-23T07:19:03,42.805,6.029,-0.034,0.007,0.005,106.0,106.0,103.0,13.4,1505.2,326.3,-0.8,1.8,2470.787,13.29,0.034,281.6
2022-02-23T07:22:03,42.805,6.029,-0.043,0.011,0.0,105.0,106.0,104.0,13.3,1505.2,325.2,-0.8,1.8,2470.75,13.29,0.044,284.3
2022-02-23T07:25:03,42.805,6.029,-0.028,0.011,-0.017,106.0,105.0,105.0,13.3,1505.2,325.9,-0.7,1.8,2470.784,13.29,0.03,291.4
2022-02-23T07:28:03,42.805,6.029,-0.028,0.005,-0.037,107.0,106.0,103.0,13.3,1505.2,328.9,-0.8,1.8,2470.784,13.29,0.028,280.1
2022-02-23T07:31:03,42.805,6.029,-0.01,-0.002,0.026,107.0,106.0,104.0,13.4,1505.2,324.7,-0.7,1.8,2470.785,13.29,0.01,258.7
2022-02-23T07:34:03,42.805,6.029,-0.043,0.014,0.025,108.0,104.0,104.0,13.4,1505.2,328.1,-0.7,1.9,2470.788,13.29,0.045,288.0
2022-02-23T07:37:03,42.805,6.029,-0.041,0.01,-0.012,105.0,104.0,105.0,13.3,1505.2,327.2,-0.8,1.8,2470.786,13.29,0.042,283.7
2022-02-23T07:40:03,42.805,6.029,-0.017,0.03,0.003,106.0,106.0,104.0,13.3,1505.2,323.1,-0.8,1.8,2470.783,13.29,0.034,330.5
2022-02-23T07:43:03,42.805,6.029,-0.028,0.003,0.01,107.0,106.0,103.0,13.3,1505.2,325.2,-0.7,1.8,2470.811,13.29,0.028,276.1
2022-02-23T07:46:03,42.805,6.029,-0.046,0.021,-0.006,107.0,106.0,104.0,13.4,1505.2,331.1,-0.7,1.8,2470.781,13.29,0.05,294.5
2022-02-23T07:49:03,42.805,6.029,-0.022,0.03,-0.036,107.0,107.0,103.0,13.4,1505.2,327.4,-0.8,1.8,2470.83,13.29,0.037,323.7
2022-02-23T07:52:03,42.805,6.029,-0.03,0.014,-0.005,107.0,106.0,104.0,13.4,1505.2,331.6,-0.8,1.8,2470.795,13.29,0.033,295.0
2022-02-23T07:55:03,42.805,6.029,-0.038,-0.004,-0.015,108.0,105.0,103.0,13.3,1505.2,325.9,-0.8,1.8,2470.814,13.29,0.038,264.0
2022-02-23T07:58:03,42.805,6.029,-0.025,-0.007,0.001,106.0,106.0,104.0,13.4,1505.2,326.5,-0.8,1.8,2470.819,13.29,0.025,254.4
2022-02-23T08:04:03,42.805,6.029,-0.001,0.002,0.006,106.0,105.0,104.0,13.4,1505.2,329.3,-0.8,1.8,2470.861,13.29,0.002,333.4
2022-02-23T08:07:03,42.805,6.029,-0.005,0.02,-0.022,106.0,107.0,104.0,13.3,1505.2,323.8,-0.7,1.8,2470.842,13.29,0.02,346.0
2022-02-23T08:10:03,42.805,6.029,-0.041,0.021,0.0,106.0,106.0,105.0,13.4,1505.2,326.7,-0.8,1.8,2470.809,13.29,0.046,297.1
2022-02-23T08:13:03,42.805,6.029,-0.013,0.0,-0.006,107.0,105.0,104.0,13.4,1505.2,325.0,-0.8,1.8,2470.836,13.29,0.013,270.0
2022-02-23T08:16:03,42.805,6.029,-0.029,0.026,0.006,106.0,106.0,103.0,13.4,1505.2,329.0,-0.8,1.8,2470.813,13.29,0.038,311.9
2022-02-23T08:19:03,42.805,6.029,-0.032,0.004,-0.008,106.0,107.0,104.0,13.4,1505.2,325.7,-0.8,1.8,2470.847,13.29,0.032,277.1
2022-02-23T08:22:03,42.805,6.029,-0.039,0.012,0.008,106.0,108.0,104.0,13.4,1505.2,331.9,-0.7,1.8,2470.834,13.29,0.04,287.1
2022-02-23T08:25:03,42.805,6.029,-0.033,0.007,-0.013,106.0,105.0,103.0,13.3,1505.2,329.0,-0.7,1.8,2470.875,13.29,0.033,282.0
2022-02-23T08:28:03,42.805,6.029,-0.038,0.019,-0.005,106.0,105.0,103.0,13.4,1505.2,324.2,-0.7,1.8,2470.838,13.29,0.042,296.6
2022-02-23T08:31:03,42.805,6.029,-0.022,0.024,0.022,107.0,106.0,102.0,13.4,1505.2,326.2,-0.8,1.8,2470.885,13.29,0.032,317.5
2022-02-23T08:34:03,42.805,6.029,-0.013,0.003,0.003,105.0,106.0,103.0,13.4,1505.2,327.0,-0.7,1.8,2470.867,13.29,0.013,283.0
2022-02-23T08:37:03,42.805,6.029,-0.039,0.02,-0.005,105.0,107.0,102.0,13.4,1505.2,325.1,-0.8,1.8,2470.842,13.29,0.043,297.1
2022-02-23T08:40:03,42.805,6.029,-0.012,0.007,-0.005,107.0,106.0,103.0,13.4,1505.2,328.2,-0.8,1.8,2470.834,13.29,0.013,300.3
2022-02-23T08:43:03,42.805,6.029,-0.029,0.007,0.007,106.0,106.0,104.0,13.4,1505.2,323.2,-0.8,1.8,2470.842,13.29,0.029,283.6
2022-02-23T08:46:03,42.805,6.029,-0.022,0.021,0.009,106.0,106.0,104.0,13.3,1505.2,330.3,-0.7,1.8,2470.817,13.29,0.03,313.7
2022-02-23T08:49:03,42.805,6.029,-0.001,-0.001,-0.026,108.0,106.0,103.0,13.3,1505.2,328.7,-0.8,1.8,2470.857,13.29,0.001,225.0
2022-02-23T08:52:03,42.805,6.029,-0.026,0.017,0.001,107.0,106.0,104.0,13.3,1505.2,326.6,-0.8,1.8,2470.858,13.29,0.031,303.2
2022-02-23T08:55:03,42.805,6.029,-0.037,0.034,0.003,105.0,105.0,104.0,13.4,1505.2,325.9,-0.8,1.9,2470.873,13.29,0.05,312.6
2022-02-23T08:58:03,42.805,6.029,-0.03,0.006,-0.02,107.0,107.0,103.0,13.3,1505.2,329.8,-0.7,1.8,2470.858,13.29,0.03,281.3
2022-02-23T09:04:03,42.805,6.029,-0.026,0.021,0.018,106.0,106.0,103.0,13.4,1505.2,323.3,-0.7,1.8,2470.935,13.29,0.033,308.9
2022-02-23T09:07:03,42.805,6.029,-0.026,0.003,-0.003,107.0,106.0,104.0,13.4,1505.2,325.0,-0.7,1.8,2470.893,13.29,0.026,276.6
2022-02-23T09:10:03,42.805,6.029,-0.039,0.026,-0.004,107.0,106.0,103.0,13.3,1505.2,327.8,-0.8,1.8,2470.894,13.29,0.046,303.7
2022-02-23T09:13:03,42.805,6.029,-0.035,0.014,0.005,105.0,106.0,102.0,13.4,1505.2,329.4,-0.8,1.8,2470.856,13.29,0.037,291.8
2022-02-23T09:16:03,42.805,6.029,-0.045,0.011,-0.003,104.0,105.0,103.0,13.4,1505.2,324.6,-0.8,1.8,2470.912,13.29,0.046,283.7
2022-02-23T09:19:03,42.805,6.029,-0.026,0.023,-0.014,105.0,104.0,104.0,13.3,1505.2,325.4,-0.8,1.8,2470.924,13.29,0.034,311.5
2022-02-23T09:22:03,42.805,6.029,-0.022,-0.003,-0.012,105.0,106.0,103.0,13.4,1505.2,329.0,-0.8,1.8,2470.898,13.29,0.022,262.2
2022-02-23T09:25:03,42.805,6.029,-0.039,0.004,0.001,107.0,107.0,103.0,13.4,1505.2,326.3,-0.7,1.8,2470.927,13.29,0.039,275.9
2022-02-23T09:28:03,42.805,6.029,-0.038,0.001,0.0,106.0,106.0,103.0,13.4,1505.2,328.2,-0.8,1.8,2470.906,13.29,0.038,271.5
2022-02-23T09:31:03,42.805,6.029,-0.029,0.019,0.016,106.0,106.0,103.0,13.3,1505.2,324.4,-0.8,1.8,2470.906,13.29,0.034,303.2
2022-02-23T09:34:03,42.805,6.029,-0.034,0.022,0.005,106.0,104.0,103.0,13.4,1505.2,331.0,-0.7,1.8,2470.91,13.29,0.04,302.9
2022-02-23T09:37:03,42.805,6.029,-0.022,0.009,0.009,107.0,106.0,104.0,13.4,1505.2,325.8,-0.8,1.8,2470.896,13.29,0.023,292.2
2022-02-23T09:40:03,42.805,6.029,-0.056,0.033,-0.008,108.0,106.0,104.0,13.4,1505.2,330.0,-0.8,1.9,2470.899,13.29,0.064,300.5
2022-02-23T09:43:03,42.805,6.029,-0.022,0.001,0.028,108.0,106.0,102.0,13.3,1505.2,324.0,-0.8,1.8,2470.897,13.29,0.022,272.6
2022-02-23T09:46:03,42.805,6.029,-0.041,-0.006,-0.029,107.0,105.0,104.0,13.4,1505.2,326.2,-0.8,1.8,2470.91,13.29,0.041,261.7
2022-02-23T09:49:03,42.805,6.029,-0.006,0.027,0.009,107.0,106.0,103.0,13.4,1505.2,331.9,-0.7,1.8,2470.908,13.29,0.027,347.5
2022-02-23T09:52:03,42.805,6.029,-0.025,0.013,0.015,106.0,107.0,104.0,13.4,1505.2,324.8,-0.8,1.8,2470.929,13.29,0.028,297.5
2022-02-23T09:55:03,42.805,6.029,-0.031,0.032,-0.007,107.0,105.0,104.0,13.4,1505.2,329.2,-0.7,1.8,2470.899,13.29,0.044,315.9